KMDQ

Details ICAO KMDQ
Name MADISON CO EXECUTIVE
Region United States
Timezone America/Chicago (UTC-5.0)
Plans Departing 24
Arriving 6
Stats Elevation 756 ft / 230 m (AMSL)
Location 34.861407° -86.557474°
Runways 1
Magnetic Variation 3.805° W
Sunrise 2018-05-23 10:39:10 UTC / 2018-05-23 05:39:10 Local
Sunset 2018-05-24 00:49:41 UTC / 2018-05-23 19:49:41 Local
Advertisement - Login to hide

Runways

ID Width Length Bearing (true) Bearing (mag) Surface Threshold Offset Overrun Length
18 100 ft / 30 m 5,017 ft / 1,529 m 180.92° 184.73° Asphalt 0 ft / 0 m 0 ft / 0 m
36 100 ft / 30 m 5,017 ft / 1,529 m 0.92° 4.73° Asphalt 0 ft / 0 m 0 ft / 0 m

Approach Navaids

Runway Type Ident Frequency Range Bearing (true) Bearing (mag) Slope Elevation
18 Localiser IMDQ 109.75 MHz 18 nm / 33 km 180.92° 184.73° - 756 ft / 230 m (AMSL)
18 Glidescope IMDQ 109.75 MHz 10 nm / 19 km 180.92° 184.73° 3.00° 756 ft / 230 m (AMSL)
18 DME IMDQ 109.75 MHz 18 nm / 33 km - - - 756 ft / 230 m (AMSL)

Map

Weather


0- 5 10 15 20 25 30 35+ Temperature / ° C

Clouds and Precipitation
Forecast for 2018-05-23 18:00 UTC. Updated 5 hours ago

Ground ~20,000 ft ~40,000 ft Winds

METAR

KMDQ 232235Z AUTO 01004KT 10SM CLR 29/19 A3004 RMK A01 T02930190

TAF

Not found

Frequencies

Recorded 120.00 MHz AWOS 3
Approach 125.60 MHz HUNTSVILLE APP/DEP
Unicom 123.00 MHz CTAF/UNICOM
Warning: Do not use this data for real-world aviation or navigation. No guarantee of current accuracy is given.